SCP
0 0 0 0 0 0 0 0 0 0 0 0 0 0 0 0 0 0 0 0 0 0 0 0 0 0 0 0 0 0 0 0 0 0 0 0 0 0 0 0 0 0 0
0 0 0 0 0 0 0 0 0 0 0 0 0 0 0 0 0 0 0 0 0 0 0 0 0 0 0 0 0 0 0 0 0 0 0 0 0 0 0 0 0 0 0
0 0 0 0 0 0 0 0 0 0 0 0 0 0 0 0 0 0 0 0 0 0 0 0 0 0 0 0 0 0 0 0 0 0 0 0 0 0 0 0 0 0 0
0 0 0 0 0 0 0 0 0 0 0 0 0 0 0 0 0 0 0 0 0 0 0 0 0 0 0 0 0 0 0 0 0 0 0 0 0 0 0 0 0 0 0
0 0 0 0 0 0 0 0 0 0 0 0 0 0 0 0 0 0 0 0 0 0 0 0 0 0 0 0 0 0 0 0 0 0 0 0 0 0 0 0 0 0 0
0 0 0 0 0 0 0 0 0 0 0 0 0 0 0 0 0 0 0 0 0 0 0 0 0 0 0 0 0 0 0 0 0 0 0 0 0 0 0 0 0 0 0
0 0 0 0 0 0 0 0 0 0 0 0 0 0 0 0 0 0 0 0 0 0 0 0 0 0 0 0 0 0 0 0 0 0 0 0 0 0 0 0 0 0 0
0 0 0 0 0 0 0 0 0 0 0 0 0 0 0 0 0 0 0 0 0 0 0 0 0 0 0 0 0 0 0 0 0 0 0 0 0 0 0 0 0 0 0
0 0 0 0 0 0 0 0 0 0 0 0 0 0 0 0 0 0 0 0 0 0 0 0 0 0 0 0 0 0 0 0 0 0 0 0 0 0 0 0 0 0 0
0 0 0 0 0 0 0 0 0 0 0 0 0 0 0 0 0 0 0 0 0 0 0 0 0 0 0 0 0 0 0 0 0 0 0 0 0 0 0 0 0 0 0
0 0 0 0 0 0 0 0 0 0 0 0 0 0 0 0 0 0 0 0 0 0 0 0 0 0 0 0 0 0 0 0 0 0 0 0 0 0 0 0 0 0 0
0 0 0 0 0 0 0 0 0 0 0 0 0 0 0 0 0 0 0 0 0 0 0 0 0 0 0 0 0 0 0 0 0 0 0 0 0 0 0 0 0 0 0
0 0 0 0 0 0 0 0 0 0 0 0 0 0 0 0 0 0 0 0 0 0 0 0 0 0 0 0 0 0 0 0 0 0 0 0 0 0 0 0 0 0 0
0 0 0 0 0 0 0 0 0 0 0 0 0 0 0 0 0 0 0 0 0 0 0 0 0 0 0 0 0 0 0 0 0 0 0 0 0 0 0 0 0 0 0
0 0 0 0 0 0 0 0 0 0 0 0 0 0 0 0 0 0 0 0 0 0 0 0 0 0 0 0 0 0 0 0 0 0 0 0 0 0 0 0 0 0 0
0 0 0 0 0 0 0 0 0 0 0 0 0 0 0 0 0 0 0 0 0 0 0 0 0 0 0 0 0 0 0 0 0 0 0 0 0 0 0 0 0 0 0
0 0 0 0 0 0 0 0 0 0 0 0 0 0 0 0 0 0 0 0 0 0 0 0 0 0 0 0 0 0 0 0 0 0 0 0 0 0 0 0 0 0 0
0 0 0 0 0 0 0 0 0 0 0 0 0 0 0 0 0 0 0 0 0 0 0 0 0 0 0 0 0 0 0 0 0 0 0 0 0 0 0 0 0 0 0
0 0 0 0 0 0 0 0 0 0 0 0 0 0 0 0 0 0 0 0 0 0 0 0 0 0 0 0 0 0 0 0 0 0 0 0 0 0 0 0 0 0 0
0 0 0 0 0 0 0 0 0 0 0 0 0 0 0 0 0 0 0 0 0 0 0 0 0 0 0 0 0 0 0 0 0 0 0 0 0 0 0 0 0 0 0
0 0 0 0 0 0 0 0 0 0 0 0 0 0 0 0 0 0 0 0 0 0 0 0 0 0 0 0 0 0 0 0 0 0 0 0 0 0 0 0 0 0 0
0 0 0 0 0 0 0 0 0 0 0 0 0 0 0 0 0 0 0 0 0 0 0 0 0 0 0 0 0 0 0 0 0 0 0 0 0 0 0 0 0 0 0
0 0 0 0 0 0 0 0 0 0 0 0 0 0 0 0 0 0 0 0 0 0 0 0 0 0 0 0 0 0 0 0 0 0 0 0 0 0 0 0 0 0 0
0 0 0 0 0 0 0 0 0 0 0 0 0 0 0 0 0 0 0 0 0 0 0 0 0 0 0 0 0 0 0 0 0 0 0 0 0 0 0 0 0 0 0
0 0 0 0 0 0 0 0 0 0 0 0 0 0 0 0 0 0 0 0 0 0 0 0 0 0 0 0 0 0 0 0 0 0 0 0 0 0 0 0 0 0 -0
0 0 0 0 0 0 0 0 0 0 0 0 0 0 0 0 0 0 0 0 0 0 0 0 0 0 0 0 0 0 0 0 0 0 0 0 0 0 0 0 0 -0 -0
Wind_Speed
15 15 15 14 14 14 12 13 13 12 12 12 11 11 10 10 10 9 9 9 9 8 7 8 7 7 5 4 3 3 2 1 2 1 1 2 4 5 6 6 7 7 7
12 12 13 12 12 13 12 12 12 12 12 12 12 11 11 10 10 11 11 10 10 10 9 9 9 6 7 5 4 4 3 2 2 2 1 2 4 5 6 7 6 6 7
9 10 11 11 11 12 11 11 11 12 11 11 12 12 12 11 11 10 11 10 10 10 10 10 9 9 8 5 5 4 3 2 1 2 2 2 3 4 6 6 7 6 7
8 9 10 10 10 9 9 10 11 11 12 12 11 11 11 11 11 11 11 11 10 9 8 9 9 8 8 8 5 5 4 3 2 2 2 3 3 4 4 5 6 6 7
8 8 8 7 6 7 8 9 9 9 10 10 11 10 10 10 10 12 12 11 11 10 9 8 7 7 7 6 5 5 5 3 3 2 2 2 3 3 4 5 7 8 8
8 7 6 6 7 7 8 8 9 9 9 10 10 11 11 8 15 17 14 12 11 11 10 9 8 7 8 8 6 6 5 4 3 2 2 3 4 4 4 5 7 7 6
7 6 6 7 7 8 8 9 10 10 10 10 10 11 11 13 19 19 15 11 11 10 10 9 7 6 7 6 7 7 5 4 4 3 4 4 4 4 5 6 6 7 7
8 7 7 8 8 8 8 9 9 8 10 10 10 11 11 13 19 19 17 11 9 9 9 9 9 9 8 7 6 5 4 4 4 3 3 4 4 4 4 5 6 7 8
9 9 9 9 9 9 9 9 8 9 9 8 9 11 11 14 19 20 17 9 8 9 8 8 8 8 11 11 7 6 5 4 3 3 4 4 4 4 4 3 4 5 6
10 9 8 8 9 10 10 9 7 8 8 9 8 8 10 11 18 19 16 8 9 8 7 7 7 9 11 11 7 6 6 4 3 2 3 3 3 2 2 2 3 4 4
7 7 8 8 8 8 8 8 9 8 9 8 9 7 7 9 16 19 16 7 8 8 7 7 7 12 12 11 8 5 5 4 3 3 3 3 2 2 2 2 2 4 5
7 8 8 8 7 7 9 9 9 10 10 10 9 8 6 6 9 14 16 11 10 7 7 6 7 12 11 11 7 6 6 4 3 3 3 3 3 3 2 3 3 5 6
8 7 7 7 7 8 9 10 9 9 8 9 9 8 7 6 8 13 14 13 12 6 5 8 9 11 10 7 8 8 5 4 3 4 4 3 3 2 2 3 4 4 6
8 8 7 8 8 7 7 8 8 9 9 9 9 9 8 8 7 8 8 8 9 7 6 7 10 10 7 5 5 5 4 3 4 4 3 3 2 2 3 2 3 3 4
7 7 7 7 7 7 6 5 7 6 7 9 9 10 11 11 12 15 11 9 8 7 7 5 5 5 5 5 4 4 4 4 4 4 3 3 3 3 3 2 2 3 3
6 6 5 5 5 6 6 4 5 5 6 8 8 8 6 8 14 18 17 15 14 14 8 6 7 7 7 7 6 6 5 5 5 4 4 4 4 4 3 3 3 4 4
5 5 5 5 5 6 6 6 6 5 6 8 10 12 10 12 16 18 17 16 16 16 8 7 8 8 7 7 7 6 6 5 5 5 5 4 4 4 4 4 4 4 4
4 4 5 5 5 5 6 6 6 7 6 5 8 12 13 13 15 16 17 14 10 11 8 8 8 8 7 7 7 6 6 5 5 5 5 5 4 4 4 4 4 4 4
3 3 3 3 4 4 5 5 5 6 6 5 4 7 10 12 13 15 16 9 9 9 9 8 7 7 7 7 6 6 6 6 6 5 5 5 5 5 5 4 4 4 5
1 2 3 3 4 4 5 5 5 6 6 6 6 7 7 8 8 10 11 9 9 9 9 8 8 7 7 7 6 6 6 6 6 6 6 5 5 5 6 6 5 5 4
1 2 3 3 4 4 5 5 5 6 6 6 6 7 12 9 9 10 9 9 9 9 8 7 7 7 7 6 6 7 8 7 7 6 6 6 6 5 5 5 5 5 4
0 1 2 3 3 3 4 4 5 5 6 7 5 6 13 8 7 8 8 8 8 7 6 6 6 6 7 7 8 8 8 8 7 7 7 6 6 6 5 5 5 5 5
1 1 2 2 2 3 4 4 5 5 6 6 5 5 6 8 8 8 8 7 6 6 6 6 7 6 6 7 7 8 8 8 8 8 7 7 6 6 6 6 7 6 6
2 2 2 2 3 3 4 5 5 5 6 6 6 6 7 7 7 8 7 6 6 6 6 6 7 9 10 8 7 7 7 7 7 7 10 8 7 6 6 6 7 7 6
2 2 3 3 3 4 4 5 5 6 6 6 6 6 7 7 7 7 7 6 7 7 8 8 7 8 11 12 10 8 10 11 10 7 8 8 8 8 8 8 7 7 7
2 3 3 3 3 4 4 5 5 6 6 6 6 6 6 7 7 7 6 6 6 7 7 7 9 10 11 11 12 12 12 13 13 12 9 8 9 8 8 7 9 8 8
Wind_Direction
213 212 210 210 207 206 205 200 193 185 178 175 169 164 161 159 156 151 149 150 147 143 144 142 138 138 140 141 141 149 157 204 233 222 268 320 322 328 330 330 326 327 330
213 211 210 207 203 201 200 194 184 179 176 172 165 161 159 159 157 155 153 156 154 153 151 146 145 146 145 145 148 153 157 174 226 248 266 297 303 321 325 324 324 322 322
206 205 205 203 200 198 191 180 176 172 167 164 163 161 161 159 157 155 154 154 155 153 154 153 153 154 152 154 156 156 153 162 192 239 270 282 292 314 320 317 319 318 322
201 202 202 200 197 190 178 171 170 168 164 164 164 161 158 155 153 150 148 147 145 144 147 151 156 160 159 159 159 160 159 168 189 234 260 279 290 316 314 323 324 328 325
197 200 200 188 178 168 165 164 160 161 159 156 153 150 150 151 155 152 149 148 146 143 145 149 152 149 152 157 160 166 170 177 192 227 256 280 297 320 326 327 319 321 319
193 193 179 168 161 160 157 152 150 150 146 148 153 153 154 155 158 154 150 149 149 150 151 150 147 151 156 161 167 174 182 187 197 222 247 271 291 308 315 314 316 323 320
183 173 167 165 161 159 155 154 154 153 149 152 155 155 155 158 159 154 150 149 151 154 155 155 155 160 164 166 171 177 186 203 218 234 251 266 286 298 303 302 307 306 298
181 177 172 170 164 157 157 158 155 152 156 155 156 156 151 157 158 154 148 145 147 152 158 161 161 166 175 174 173 178 189 203 218 232 249 266 279 290 286 291 299 295 285
187 184 177 172 166 163 164 162 155 154 154 153 155 156 153 156 161 157 151 145 148 153 157 163 167 171 179 181 179 183 194 207 219 237 255 266 280 292 302 289 292 298 300
191 181 173 171 169 169 166 158 153 152 151 146 149 155 154 156 163 162 157 151 153 155 159 168 178 180 183 188 189 191 205 208 204 219 235 253 264 278 299 281 279 284 293
163 160 166 169 168 164 156 153 151 147 144 146 146 148 151 156 165 168 166 160 162 162 168 176 184 188 191 196 197 200 208 191 201 217 231 240 245 251 262 272 271 267 273
153 160 164 164 162 157 154 152 153 152 151 151 149 149 152 157 167 174 174 172 166 167 174 176 182 188 195 197 198 199 192 186 196 213 230 237 243 251 269 284 281 275 267
153 160 160 159 160 161 161 160 159 163 163 162 164 164 165 167 176 179 180 178 176 170 170 174 177 186 192 198 201 193 182 191 203 219 230 236 242 262 275 279 270 272 269
159 160 160 163 164 164 167 170 172 175 174 173 174 172 168 172 178 177 177 177 178 177 168 170 178 185 186 181 184 186 192 204 215 224 229 233 234 240 249 265 275 289 281
158 159 162 167 166 169 174 183 187 192 191 182 182 177 174 184 191 183 175 179 179 176 158 161 176 182 190 193 196 195 197 197 208 214 217 221 226 234 239 244 260 268 266
157 163 166 166 167 169 168 169 193 189 193 196 189 183 188 185 176 184 187 186 181 170 164 184 194 199 203 202 201 202 203 208 208 208 212 218 223 228 234 232 241 250 262
162 164 165 169 172 174 176 176 173 178 192 196 193 191 190 183 181 185 188 187 184 180 191 200 205 206 206 204 204 204 205 202 198 207 211 214 218 226 232 235 238 247 257
159 162 167 174 179 183 187 190 185 182 184 193 200 199 196 193 190 189 187 180 190 197 209 210 211 209 206 205 203 204 201 193 195 204 208 209 211 219 227 233 235 241 256
162 166 172 173 180 186 189 192 194 197 198 190 181 195 198 199 197 197 189 196 202 206 209 214 214 210 207 205 202 200 199 199 199 201 207 207 207 214 225 230 235 232 241
167 167 169 175 181 188 192 197 200 202 203 201 201 194 179 184 196 200 202 208 212 215 212 213 212 209 204 200 197 195 197 199 198 204 208 206 206 212 220 223 226 230 232
184 176 179 188 198 201 204 208 209 210 212 214 215 204 194 198 206 208 209 213 216 218 216 214 210 205 202 198 196 197 200 203 201 201 204 205 204 209 217 220 221 224 233
296 205 205 212 213 215 218 220 220 223 224 225 222 217 215 216 218 218 219 221 220 220 217 212 210 206 202 199 197 198 202 206 203 201 202 200 200 207 210 213 217 220 223
313 262 241 237 233 229 228 230 231 232 234 234 228 220 220 223 225 227 228 226 221 218 214 212 214 210 204 203 204 203 206 208 204 197 196 197 198 202 205 212 213 217 223
306 277 261 253 246 241 239 239 238 238 238 236 234 231 230 232 232 233 231 229 226 223 217 214 217 216 210 206 206 208 213 210 200 198 199 199 199 202 205 211 214 215 220
299 282 269 260 254 252 251 250 248 246 245 242 240 239 238 238 237 238 234 230 228 227 223 219 219 219 217 214 211 209 211 211 205 196 195 200 203 203 206 210 211 212 213
292 283 275 269 262 259 257 256 254 252 250 249 247 245 244 243 242 240 236 230 227 227 226 224 224 222 220 218 219 216 213 213 209 203 198 201 204 207 204 208 211 213 214